KGSO

Piedmont Triad International

Airport
ICAO code
KGSO
Summary
ICAO Region
NAM
ICAO Territory
Location

Friendship Township, Guilford County, Greensboro, North Carolina,

Elevation
925 ft
Coordinates
36° 5' 52" N , 79° 56' 14" W
KCC
Metar
KGSO 191254Z VRB03KT 10SM FEW110 SCT250 16/12 A3003 RMK AO2 SLP163 T01610122

Description

Piedmont Triad International Airport (commonly referred to as "PTIA" or just "PTI") is an airport just west of Greensboro, serving Greensboro, High Point and Winston-Salem in North Carolina.

Climatology

Humid “subtropical” climate (Köppen climate classification Cfa) - characterized by hot, humid summers and cool winters. Significant amounts of precipitation occur in all seasons in most areas. Winter rainfall (and sometimes snowfall) is associated with large storms that the westerlies steer from west to east. Most summer rainfall occurs during thunderstorms and occasional tropical storms (hurricanes). Tornadoes are a threat in the Spring.

Airport map

Aerial View

SKYbrary Partners:

Safety knowledge contributed by: